Powrót do katalogu

STARLINK-36872

AktywnyŁącznośćVLEO
NORAD 67955·PAYLOAD·🇺🇸 United States

Wystrzelony Feb 24, 2026 z Vandenberg Space Force Base

Loading…

Następne Przeloty (najbliższe 24 godziny)

TLE

ŚwieżeSource: CelesTrak SupGP

Epoka: Sep 15, 2026, 03:39 UTC

1 67955C 26037Z   26258.15256944 -.00050672  00000+0 -18356-2 0  2583
2 67955  42.9997 200.7278 0001288 274.4626 191.0396 15.27598938    17

Śledź STARLINK-36872 w czasie rzeczywistym z AllMySat

Download on the App Store